Location: Eberly
(37.5724°N, 121.9933°W)
Time: 23:55:54
(UTC+00:00)

Daily predictions for brighter satellites

Satellite Brightness Start Highest point End
(mag) Time Altitude Azimuth Time Altitude Azimuth Time Altitude Azimuth
IDEFIX/ARIANE 42P 2.4 12:00:35 10° N 12:05:41 78° NW 12:05:41 78° NW
Cosmos 1844 Rocket 2.7 12:03:36 14° NNW 12:08:28 76° ENE 12:14:02 10° SSE
Cosmos 2333 Rocket 2.3 12:09:30 33° S 12:12:08 73° ESE 12:17:49 10° NNE
Cosmos 1378 4.0 12:18:15 44° NNE 12:18:15 44° NNE 12:20:55 10° N
COSMOS 2441 4.4 12:13:56 10° NNE 12:18:53 80° ESE 12:22:37 17° S
Cosmos 2278 Rocket 4.4 12:16:15 10° N 12:20:46 24° ENE 12:25:13 10° ESE
Cosmos 1805 4.2 12:22:59 36° S 12:22:59 36° S 12:25:22 10° S
Cosmos 1844 3.8 12:18:15 10° NNW 12:24:05 82° ENE 12:29:51 10° SSE
Meteor 1-31 Rocket 3.7 12:23:14 10° NNE 12:26:56 47° E 12:30:35 10° S
Cosmos 2333 4.2 12:28:24 47° WSW 12:29:26 54° WNW 12:34:58 10° NNE
Cosmos 2251 Rocket 3.8 12:32:24 45° W 12:32:56 46° WNW 12:38:07 10° N
NOSS 2-2 (E) 3.6 12:33:53 45° NNW 12:33:53 45° NNW 12:37:12 10° NNE
CZ-2C R/B 2.6 12:29:56 10° NNE 12:35:10 81° ESE 12:40:19 10° S
PAYLOAD A 3.7 12:31:53 10° N 12:36:41 78° WNW 12:41:39 10° SSW
BREEZE-M DEB (TANK) 4.0 12:36:07 28° NW 12:36:48 29° NW 12:39:45 10° NNE
Cosmos 1842 3.1 12:36:10 45° SSW 12:37:16 72° W 12:41:13 10° N
Cosmos 1992 Rocket 4.0 12:32:31 10° NNW 12:37:45 83° ENE 12:42:56 10° SSE
COSMOS 2455 3.3 12:37:04 36° W 12:38:13 39° NW 12:43:52 10° NNE
Cosmos 2322 4.2 12:38:21 36° WNW 12:39:03 37° WNW 12:44:23 10° N
Cosmos 1707 4.5 12:39:15 10° SSE 12:42:47 34° E 12:46:22 10° NNE
SWAS 4.4 12:42:00 26° NW 12:44:19 64° WSW 12:48:34 10° SSE
CZ-4B R/B 2.8 12:41:12 10° NNE 12:45:19 82° ESE 12:49:12 10° S
Cosmos 2184 Rocket 4.2 12:40:06 10° S 12:46:14 73° E 12:52:27 10° N
Cosmos 1709 Rocket 4.4 12:44:55 21° SW 12:48:37 40° WNW 12:54:30 10° N
Cosmos 1733 3.0 12:44:50 10° N 12:48:42 77° W 12:52:31 10° S
Cosmos 2219 Rocket 2.4 12:52:32 21° SW 12:56:01 48° WNW 13:01:25 10° N
Meteor PRIRODA 3.9 12:52:36 10° NNE 12:56:21 73° E 13:00:04 10° S
Okean O Rocket 3.8 12:54:39 10° NE 12:58:28 28° E 13:02:14 10° SSE
Cosmos 2237 Rocket 2.6 12:53:17 10° S 12:58:53 67° ESE 13:04:31 10° NNE
COSMOS 2428 3.1 12:59:19 18° SW 13:03:08 42° WNW 13:08:30 10° N
NOSS 3-4 (A) 3.5 12:59:47 10° SSW 13:05:45 77° ESE 13:11:58 10° NE
NOSS 3-4 (C) 3.6 12:59:51 10° SSW 13:05:50 76° ESE 13:12:05 10° NE
USA 234 3.8 13:01:49 10° SSE 13:07:44 37° SW 13:12:51 14° WNW
NOSS 2-2 (D) 4.3 13:09:50 23° WNW 13:10:49 26° NW 13:14:10 10° N
Cosmos 389 Rocket 2.5 13:08:31 10° S 13:11:56 78° E 13:15:21 10° NNE
Cosmos 1980 3.6 13:09:13 10° SSW 13:14:52 83° WNW 13:20:33 10° NNE
Cosmos 1190 Rocket 4.1 13:10:11 10° SSW 13:15:30 85° ESE 13:20:50 10° NNE
H-2A R/B 3.9 13:15:08 10° NNW 13:18:00 19° WNW 13:18:53 17° W
USA 32 4.3 13:14:48 10° SSW 13:19:46 44° W 13:24:45 10° N
ALOS 3.3 13:16:09 10° NNE 13:20:42 50° E 13:25:13 10° S
Cosmos 407 Rocket 3.4 13:16:02 10° SSW 13:21:12 75° WNW 13:26:20 10° NNE
Cosmos 1953 2.7 13:17:30 10° N 13:21:32 67° E 13:25:30 10° SSE
Cosmos 1025 Rocket 3.9 13:18:30 10° SW 13:22:09 27° WNW 13:25:48 10° NNW
ERBS 2.4 13:19:27 14° WSW 13:22:09 56° NW 13:25:29 10° NE
CZ-4B R/B 4.1 13:17:06 10° NNE 13:22:17 52° E 13:27:25 10° S
SJ-12 4.1 13:18:23 10° NNE 13:22:29 75° E 13:26:34 10° S
Cosmos 2074 Rocket 4.1 13:17:33 10° SSW 13:23:39 54° W 13:29:45 10° N
PSLV R/B 3.7 13:21:06 10° N 13:24:44 53° WNW 13:28:20 10° SSW
Cosmos 1758 3.4 13:22:13 10° NNW 13:26:08 55° W 13:30:02 10° S
Cosmos 2228 3.8 13:24:00 10° N 13:28:12 56° E 13:32:21 10° SSE
SeaSat 1 3.3 13:27:29 10° NE 13:32:20 56° ESE 13:37:09 10° S
RESURS DK-1 4.2 13:29:52 10° S 13:33:37 35° ESE 13:37:25 10° NE
SKYMED 2 3.5 13:29:26 10° S 13:33:45 81° WSW 13:38:07 10° NNW
GP-B 3.1 13:30:18 10° S 13:34:44 89° WNW 13:39:11 10° N
Cosmos 292 Rocket 3.7 13:31:35 10° NNW 13:36:21 68° WSW 13:41:07 10° S
ATLAS 3B R/B 3.4 13:31:39 10° NNW 13:38:15 56° NE 13:45:00 10° SE
Cosmos 921 Rocket 3.3 13:36:37 10° NNW 13:40:43 44° W 13:44:44 10° S
MOS 1-B 4.4 13:36:51 10° N 13:42:32 58° WNW 13:48:12 10° SSW
Cosmos 44 3.8 13:38:41 10° NNW 13:42:56 52° ENE 13:47:08 10° SE
Cosmos 1726 3.6 13:40:49 10° N 13:44:18 41° E 13:47:46 10° SSE
GPS 2-05 Rocket1 3.7 13:42:26 10° WSW 13:44:48 25° SSW 13:47:11 10° SE
Cosmos 1892 Rocket 3.6 13:41:12 10° S 13:45:40 85° W 13:50:06 10° N
ATLAS 2AS CENTAUR R/B 3.4 13:38:55 10° WSW 13:46:30 46° NW 13:54:12 10° NNE
Meteor 1-16 Rocket 4.3 13:41:57 10° N 13:47:17 80° E 13:52:38 10° SSE
SL-16 R/B 2.8 13:43:00 10° S 13:48:34 64° ESE 13:54:10 10° NNE
NOSS 0 Rocket 4.5 13:45:57 10° SW 13:51:36 38° WNW 13:57:19 10° N
USA 238 DEB 4.2 13:47:31 10° NW 13:54:21 45° WSW 14:01:19 10° S
USA 238 4.2 13:47:37 10° NW 13:54:27 45° WSW 14:01:25 10° S
CENTAUR R/B 3.5 13:46:29 10° NNW 13:54:44 81° ENE 14:03:29 10° SE
